Location: Ferchesar
(52.6477°N, 12.4298°E)
Time: 08:40:47
(UTC+01:00)

Tiros 1 despin weight - Pass Details

Date: 14 December 2021
Orbit: 592 x 641 km, 48.2° (Epoch: 19 January)

Event Time Altitude Azimuth Distance (km) Brightness Sun altitude
Rises 12:18:45 0° 262° (W) 2,857 ? 14.1°
Reaches altitude 10° 12:21:07 10° 257° (WSW) 1,946 ? 14.0°
Maximum altitude 12:25:23 47° 184° (S) 790 ? 14.0°
Drops below altitude 10° 12:29:38 10° 110° (ESE) 1,926 ? 13.9°
Sets 12:31:57 0° 105° (ESE) 2,824 ? 13.9°
